User: anonymous   Login
Location: Unspecified
(0.0000°N, 0.0000°E)
Time: 14:44:45
(UTC+00:00)
Language:

Nova 3 - Orbit

View from above orbital plane
View from above orbital plane
View from above satellite
View from above satellite

Ground track
Ground track

The orbit data is extracted from the following two-line orbital elements,

1 15362U 84110A   17206.16620214 +.00000063 +00000-0 +12835-3 0  9990
2 15362 090.0434 055.0161 0033322 127.7145 349.2368 13.22735066582091
Epoch (UTC): 25 July 2017 03:59:19
Eccentricity: 0.0033322
inclination: 90.0434°
perigee height: 1149 km
apogee height: 1199 km
right ascension of ascending node: 55.0161°
argument of perigee: 127.7145°
revolutions per day: 13.22735066
mean anomaly at epoch: 349.2368°
orbit number at epoch: 58209

The dashed part of the orbit path shows where the satellite is in the earth's shadow,  

DLR